Regional Weather Roundup
Issued by NWS

Home | Current Version | Previous Version | Graphics & Text | Print | Product List | Glossary On
Versions: 1 2 3 4 5 6 7 8 9 10 11 12 13 14 15 16 17 18 19 20 21 22 23 24 25 26 27 28 29 30 31 32 33 34 35 36 37 38 39 40 41 42 43 44 45 46 47 48 49 50
000
ASUS43 KBIS 300002
RWRND

NORTH DAKOTA REGIONAL WEATHER ROUNDUP
NATIONAL WEATHER SERVICE BISMARCK ND
700 PM CDT MON AUG 29 2016

NOTE: "FAIR" INDICATES FEW OR NO CLOUDS BELOW 12,000 FEET WITH NO
SIGNIFICANT WEATHER AND/OR OBSTRUCTIONS TO VISIBILITY.


NDZ001>003-009>011-017-300100-
NORTHWEST NORTH DAKOTA

CITY           SKY/WX    TMP DP  RH WIND       PRES   REMARKS
WILLISTON      SUNNY     81  38  21 SE6       30.22F
6HR MIN TEMP:  71; 6HR MAX TEMP:  82;

MINOT          SUNNY     78  44  29 N3        30.22S
MINOT AFB      SUNNY     77  41  27 N5        30.21S
$$

NDZ018>021-031>035-040>046-300100-
SOUTHWEST NORTH DAKOTA

CITY           SKY/WX    TMP DP  RH WIND       PRES   REMARKS
BISMARCK       SUNNY     79  46  31 NE10      30.22S
6HR MIN TEMP:  74; 6HR MAX TEMP:  81;

DICKINSON      SUNNY     78  42  27 E10       30.22F
GARRISON         N/A     78  43  28 NE5       30.23S
6HR MIN TEMP:  71; 6HR MAX TEMP:  80;

HETTINGER ARPT SUNNY     80  48  32 E10       30.25S
$$

NDZ004>008-012>016-024-026-027-054-300100-
NORTHEAST NORTH DAKOTA

CITY           SKY/WX    TMP DP  RH WIND       PRES   REMARKS
GRAND FORKS    MOSUNNY   76  53  44 NW9       30.16R
GRND FRKS AFB  SUNNY     74  48  39 NW7       30.18R
DEVILS LAKE    SUNNY     73  48  41 NW8       30.21S
$$

NDZ022-023-025-028>030-036>039-047>053-300100-
SOUTHEAST NORTH DAKOTA

CITY           SKY/WX    TMP DP  RH WIND       PRES   REMARKS
FARGO          SUNNY     79  61  53 N8        30.14F
6HR MIN TEMP:  78; 6HR MAX TEMP:  84;

JAMESTOWN      SUNNY     76  55  48 N6        30.20F
$$





USA.gov is the U.S. government's official web portal to all federal, state and local government web resources and services.